[Date Prev][Date Next][Thread Prev][Thread Next] - [Date Index][Thread Index][Author Index]
2 Line ISS Keps 6-18
- Subject: [sarex] 2 Line ISS Keps 6-18
- From: "Dave Larsen PhD" <doc@xxxxxxxxxxx>
- Date: Mon, 18 Jun 2001 03:31:14 -0700
- Disposition-Notification-To: "Dave Larsen PhD" <doc@volcano.net>
ISS
1 25544U 98067A 01169.20605222 .00040723 00000-0 45441-3 0 1041
2 25544 51.5704 83.5284 0017109 174.4173 339.4852 15.62197260147239
----
Via the sarex mailing list at AMSAT.ORG courtesy of AMSAT-NA.
To unsubscribe, send "unsubscribe sarex" to Majordomo@amsat.org
AMSAT Home